Regional Weather Roundup
Issued by NWS

Home | Current Version | Previous Version | Text Only | Print | Product List | Glossary Off
Versions: 1 2 3 4 5 6 7 8 9 10 11 12 13 14 15 16 17 18 19 20 21 22 23 24 25 26 27 28 29 30 31 32 33 34 35 36 37 38 39 40 41 42 43 44 45 46 47 48 49 50

000
ASUS43 KOAX 220302
RWRNE

WEATHER ROUNDUP FOR NEBRASKA
NATIONAL WEATHER SERVICE OMAHA NE
1000 PM CDT MON AUG 21 2017

NOTES: SATELLITE DATA IS BEING USED TO AUGMENT CLOUD COVER ABOVE
       12000 FEET.
       "FAIR" INDICATES FEW OR NO CLOUDS BELOW 12,000 FEET WITH NO
       SIGNIFICANT WEATHER AND/OR OBSTRUCTIONS TO VISIBILITY.


NEZ001>004-019>022-054>056-220400-
NEBRASKA PANHANDLE

CITY           SKY/WX    TMP DP  RH WIND       PRES   REMARKS
SCOTTSBLUFF    CLEAR     66  48  52 NE7       30.18R
ALLIANCE       CLEAR     61  49  64 N10       30.18R
CHADRON        CLEAR     65  45  48 CALM      30.17R
GORDON         FAIR      59  46  62 CALM      30.18R
SIDNEY         CLEAR     66  50  56 NE7       30.20R
$$

NEZ057>060-069>072-079>082-220400-
SOUTHWEST NEBRASKA

CITY           SKY/WX    TMP DP  RH WIND       PRES   REMARKS
NORTH PLATTE   CLEAR     71  66  84 N9        30.08R
IMPERIAL       CLEAR     70  65  84 N8        30.11R
LEXINGTON      CLOUDY    75  67  75 NE8       30.05R
MCCOOK         PTCLDY    77  68  73 N23       30.03R
OGALLALA       CLEAR     70  63  78 CALM      30.13R
$$

NEZ005>010-023>029-035>040-094-220400-
NORTH CENTRAL NEBRASKA

CITY           SKY/WX    TMP DP  RH WIND       PRES   REMARKS
VALENTINE      CLEAR     70  51  51 N10       30.11R
AINSWORTH      CLEAR     65  65  97 N3        30.10R
BROKEN BOW     MOCLDY    73  65  75 N13       30.06R
O`NEILL        CLEAR     65  65 100 CALM      30.06R
ORD            CLOUDY    68  63  84 NE9       30.04R
THEDFORD       CLEAR     69  62  78 N7        30.12R
$$

NEZ041-046>049-061>064-073>077-083>087-220400-
SOUTH CENTRAL NEBRASKA

CITY           SKY/WX    TMP DP  RH WIND       PRES   REMARKS
GRAND ISLAND   CLOUDY    71  67  87 NE16G25   30.03R
AURORA         CLOUDY    70  68  93 NE16G26   30.00R
HASTINGS       MOCLDY    77  70  79 N13       29.99R
HEBRON         PTCLDY    73  71  93 CALM      29.94R
HOLDREGE       MOCLDY    74  69  82 N15G26    30.01R
KEARNEY        CLOUDY    73  67  81 NE20G31   30.03R
$$

NEZ011>018-030>034-042>045-220400-
NORTHEAST NEBRASKA

CITY           SKY/WX    TMP DP  RH WIND       PRES   REMARKS
NORFOLK        CLOUDY    65  65 100 NW3       30.02R
ALBION         CLOUDY    67  65  93 NE5       30.04R
BLAIR          HVY RAIN  65  64  94 E8        30.01R
COLUMBUS       LGT RAIN  67  65  93 NE7       30.02S
FREMONT        LGT RAIN  66  65  97 CALM      30.03R
TEKAMAH        HVY RAIN  66  64  93 N8        29.98S FOG
WAYNE          CLOUDY    64  62  91 SE3       30.02R
$$

NEZ050>053-065>068-078-088>093-220400-
SOUTHEAST NEBRASKA

CITY           SKY/WX    TMP DP  RH WIND       PRES   REMARKS
LINCOLN        CLOUDY    77  73  87 NE3       29.94R
OMAHA EPPLEY   LGT RAIN  67  62  84 NE21G35   30.01R
BEATRICE       CLOUDY    77  70  79 NE3       29.94R
FALLS CITY     LGT RAIN  71  69  93 SE7       29.92F
NEBRASKA CITY  CLOUDY    76  76 100 SE5       29.95R
PLATTSMOUTH    CLOUDY    72  67  85 NE6       29.96R
$$

NEZ044-045-051>053-067-220400-
OMAHA AREA

CITY           SKY/WX    TMP DP  RH WIND       PRES   REMARKS
OMAHA EPPLEY   LGT RAIN  67  62  84 NE21G35   30.01R
BLAIR          HVY RAIN  65  64  94 E8        30.01R
FREMONT        LGT RAIN  66  65  97 CALM      30.03R
MILLARD        LGT RAIN  72  63  73 NE16G30   30.00R
OFFUTT AFB     HVY RAIN  70  66  88 N28G40    29.95S VSB 1
PLATTSMOUTH    CLOUDY    72  67  85 NE6       29.96R
WAHOO          LGT RAIN  67  65  92 N10G28    30.02R
$$




USA.gov is the U.S. government's official web portal to all federal, state and local government web resources and services.